Gary Chicago International Airport
KGYY : now visible

Airfield :











YOU CAN JOIN US ON...

 
LOGIN :

Register | Disclaimer

   EN    FR    IT 

 









Legend :    VFR   Marginal VFR   IFR   Intensive IFR   Very Intensive IFR
Visi :
Ceiling :
>= 8 km
>= 3000ft
5 to 8 km
1000 to 3000 ft
1500m to 5 km
500 to 1000 ft
800 to 1500m
200 to 500 ft
< 800m
< 200 ft
Symbols :   Thunderstorms  Fog  Heavy snow  Heavy precipitations  Wind > 20 kt






- Airport Elevation : 591 ft
- IATA code : GYY


KGYY - Gary Chicago International

CURRENT METAR :
  • 261145Z 23007KT 10SM CLR 12/05 A2999

EXPIRED METARs :
  • 261045Z 24009KT 10SM CLR 13/05 A2999
  • 260945Z 23007KT 10SM CLR 13/05 A2998

TAF KGYY
Valid from the 26 at 12:00 until the 27 at 12:00 UTC


261125Z 2612/2712 24011KT P6SM FEW250
FM261400 24013G23KT P6SM SCT200
FM261800 23016G26KT P6SM SCT180
FM270000 22012G21KT P6SM BKN150
KZAU FIR / North America



MET'MAP, your aeronautical weather chart ! - Copyright ORBIFLY December 2007 - Disclaimer

ORBIFLY MET'MAP TEAM :

Programming & Development : Alexandra Zaïnal
Concept & original design : Baudouin d'Aumeries
Assistance for programming : Marc-Olivier Méhu
Technical & hardware support : Manuel Goepfert

Contact : metmap@orbifly.com




SOURCES & CREDITS :

   NOAA       Earth
Advisory